Location: Alvediston
(51.0078°N, 2.0364°W)
Time: 17:28:11
(UTC+00:00)

STARLINK-72 - Pass Details

Date: 27 February 2020
Orbit: 529 x 531 km, 53.0° (Epoch: 01 April)

Event Time Altitude Azimuth Distance (km) Brightness Sun altitude
Rises 19:30:51 0° 279° (W) 2,669 8.9 -17.4°
Reaches altitude 10° 19:33:05 10° 283° (WNW) 1,780 7.5 -17.8°
Maximum altitude 19:37:06 67° 6° (N) 581 3.6 -18.4°
Enters shadow 19:38:12 44° 71° (ENE) 742 3.8 -18.6°
